Showing default

3CAT-5/B (TYVAK-0162), 46293

Orbit data source: Space-Track

3CAT-5/B (TYVAK-0162), 46293 is a payload satellite owned by UPC (ES) in SSO that was launched on Thu, 03 Sep 2020 UTC via a VEGA launch vehicle from the French Guiana (FRGUI). Payload-class satellites include a variety of spacecraft equipped with specific instruments for various scientific and technological missions. These include communications satellites like Starlink; space stations such as the ISS; scientific satellites like the Hubble; Earth observation satellites from companies like Planet Labs, Umbra, and HawkEye 360; GPS; miniature CubeSats for education and research; and military/defense satellites.

Loading next visibility...
Identifier
46293, 2020-061X
Orbit
SSO
Country
Flag of ESES / SPN
Related business
Manufacturer
UPC
Mission
Non-operational Amateur Technology
Bus & Motor
CUBESAT 6U, Unknown motor
Mass
~10 kg wet, ~10 kg dry
Launch date (UTC)
2020-09-03 (5 years ago)
Launch vehicle
VEGA
Launch site
French Guiana (FRGUI)
Object type
Payload
Rocket body
Debris
Shape & HBR
Box, Unknown HBR
Radar Cross Section
0.080 m², Medium (>0.1 m² and < 1m²)

Expand to show TLE details & history
Last TLE update: 19 hours ago

TLE from 19 hours ago
0 3CAT-5/B (TYVAK-0162)
1 46293U 20061X   25287.88196097  .00016703  00000-0  44959-3 0  9996
2 46293  97.2802 347.6391 0000897 309.9649  50.1518 15.37929836283232
Epoch: 2025-10-14T21:10Z
TLE epoch observation values (Epoch: 2025-10-14T21:10:01.427Z)
Latitude
0.00003°
Longitude
6.46913°
Altitude
454.957 km
Speed
7.64 km/s
True Right ascension
23h 10m 33s
True Declination
0° 00' 00"
Sunlit
Object was in full shadow at epoch
Visualization orbit readout
Latitude
Unknown
Longitude
Unknown
Altitude
Unknown
Speed
Unknown
Apparent Right ascension
Unknown
Apparent Declination
Unknown
Sunlit
N/A
Visualization observer readout
Local Sidereal Time
10:35:53
Azimuth
Unknown
Elevation
Unknown
Doppler factor
Unknown
Orbital elements
Apogee altitude
449.781 km
Perigee altitude
448.556 km
Semi-major axis
6,827.305 km
Eccentricity
0.00009
Inclination
97.2802°
RAAN
347.6391°
Arg. of periapsis
309.9649°
True anomaly
50.15969°
Mean anomaly
50.1518°
Eccentric anomaly
50.15575°
Mean motion
3.84742 °/min
Orbital period
93.57 mins
BSTAR
0.00044959
Loading maneuver chart data...
Computing Atmospheric mass density...

Documentation

Showing up to 5 results
|